Regional Weather Roundup
Issued by NWS Burlington, VT

Home | Current Version | Previous Version | Text Only | Print | Product List | Glossary On
Versions: 1 2 3 4 5 6 7 8 9 10 11 12 13 14 15 16 17 18 19 20 21 22 23 24 25 26 27 28 29 30 31 32 33 34 35 36 37 38 39 40 41 42 43 44 45 46 47 48 49 50
000
ASUS41 KBTV 300510
RWRBTV
VERMONT REGIONAL WEATHER ROUNDUP
NATIONAL WEATHER SERVICE BURLINGTON VT
1200 AM EST FRI JAN 30 2015

NOTE: "FAIR" INDICATES FEW OR NO CLOUDS BELOW 12,000 FEET WITH NO
SIGNIFICANT WEATHER AND/OR OBSTRUCTIONS TO VISIBILITY.

* THESE REPORTS ARE NOT UNDER NWS QUALITY CONTROL AND/OR DO NOT
  REPORT WEATHER SUCH AS PRECIPITATION AND FOG.

VTZ001>019-300600-
_____VERMONT_____


CITY           SKY/WX    TMP DP  RH WIND       PRES   REMARKS
BURLINGTON     LGT SNOW  26  22  84 S13       29.86F VSB 1   WCI  15
MONTPELIER     LGT SNOW  23  17  78 S18       29.89F WCI   9
MORRISVILLE    CLOUDY    29  16  58 S8G17     29.87F
ST. JOHNSBURY*   N/A     26  19  74 MISG      29.90F
LYNDONVILLE*   LGT SNOW  25  18  76 SE10G20   29.90F WCI  15
MIDDLEBURY*    LGT SNOW  26  26  99 S3        29.87F
RUTLAND*       CLOUDY    25  19  80 SE17G25   29.87F WCI  11
SPRINGFIELD    LGT SNOW  23  20  88 SE3       29.96F FOG
HIGHGATE*      LGT SNOW  27  24  89 S15G22    29.84F WCI  15
NEWPORT*       LGT SNOW  26  17  70 S15G30    29.84F WCI  13
BENNINGTON     FLURRIES  30  22  72 VRB6G18   29.87F
SUTTON*          N/A     23 N/A N/A MISG        N/A

_____LAKE CHAMPLAIN_____


CITY           SKY/WX    TMP DP  RH WIND       PRES   REMARKS

$$

NYZ007-026>031-035-052-083-300600-
_____NORTHERN NEW YORK_____


CITY           SKY/WX    TMP DP  RH WIND       PRES   REMARKS
PLATTSBURGH    FLURRIES  27  22  81 S12       29.83S WCI  17
SARANAC LAKE   CLOUDY    26  18  71 SW16      29.71F WCI  14
MASSENA        CLOUDY    27  27 100 NE6       29.78F
OGDENSBURG*    LGT SNOW  30  27  86 SW10G16   29.76S
POTSDAM*       CLOUDY    34  27  75 SW12G17   29.75F
WATERTOWN      LGT SNOW  31  27  85 S12G21    29.76S VSB 3/4
FT DRUM        LGT SNOW  28  23  80 S14       29.74S WCI  17
ALBANY         LGT SNOW  28  23  81 S18G25    29.90F WCI  15
GLENS FALLS    LGT SNOW  26  22  84 SW6       29.91F FOG

$$
NHZ002-005-011-300600-
_____NEW HAMPSHIRE_____


CITY           SKY/WX    TMP DP  RH WIND       PRES   REMARKS
LEBANON        LGT SNOW  26  21  81 VRB3      29.94F
KEENE          CLOUDY    25  21  86 S6        29.98F
MT WASHINGTON  SNOW      10  10 100 S52         N/A  VSB 1/16WCI -17
PLYMOUTH       CLOUDY    26  22  84 CALM      29.99F
WHITEFIELD     CLOUDY    28  15  58 CALM      29.89F

$$

_____REGIONAL QUEBEC LOCATIONS_____


CITY           SKY/WX    TMP DP  RH WIND       PRES   REMARKS
MONTREAL       FLURRIES  28  25  86 SE12      29.79F WCI  18
QUEBEC CITY    LGT SNOW  21  18  86 NE5       29.90F
SHERBROOKE     FLURRIES  30  16  55 S8        29.84F

_____REGIONAL ONTARIO LOCATIONS_____


CITY           SKY/WX    TMP DP  RH WIND       PRES   REMARKS
OTTAWA         LGT SNOW  19  18  93 NE5       29.76S VSB 5/8

______KEY______
VSB  - VISIBILITY IN MILES
WCI  - WIND CHILL INDEX
HX   - HEAT INDEX
$$
NNNN



USA.gov is the U.S. government's official web portal to all federal, state and local government web resources and services.